Regional Weather Roundup
Issued by NWS Binghamton, NY

Home | Current Version | Previous Version | Text Only | Print | Product List | Glossary On
Versions: 1 2 3 4 5 6 7 8 9 10 11 12 13 14 15 16 17 18 19 20 21 22 23 24 25 26 27 28 29 30 31 32 33 34 35 36 37 38 39 40 41 42 43 44 45 46 47 48 49 50
000
ASUS41 KBGM 050410
RWRBGM
RWRBGM
BINGHAMTON REGIONAL WEATHER ROUNDUP
NATIONAL WEATHER SERVICE BINGHAMTON NY
1100 PM EST WED MAR 04 2015

Note: "fair" indicates few or no clouds below 12,000 feet with no
significant weather and/or obstructions to visibility.

* = Station(s) that does not report precipitation, such as rain,
snow, etc, also no thunder or fog.

!NYZ009-015>018-022>025-036-037-044>046-055>057-062-050500
...CENTRAL NEW YORK...

CITY           SKY/WX    TMP DP  RH WIND       PRES   REMARKS
BINGHAMTON     CLOUDY    29  20  69 NW9       29.89R WCI  20
CORTLAND       CLOUDY    30  23  74 CALM      29.92F
DANSVILLE      CLOUDY    32  20  61 VRB7      29.96F WCI  26
ELMIRA         CLOUDY    34  22  61 W13G20    29.94R WCI  25
ITHACA         CLOUDY    29  22  75 NW8       29.94S WCI  21
MONTICELLO     CLOUDY    34  30  86 W10       29.88R WCI  26
NORWICH        MOCLDY    30  18  59 N5        29.92S WCI  25
ONEONTA        PTCLDY    28  18  64 W7G16     29.86F WCI  21
PENN YAN       CLOUDY    31  20  63 W13       29.94S WCI  21
ROME           CLOUDY    28  22  78 W17       29.95S WCI  16
SIDNEY         MOCLDY    34  27  75 CALM      29.93S
SYRACUSE       LGT SNOW  25  24  96 W9        29.95F FOG     WCI  15
$$

!PAZ038>040-043-044-047-048-072-050500
...NORTHEAST PENNSYLVANIA...

CITY           SKY/WX    TMP DP  RH WIND       PRES   REMARKS
HAZLETON       LGT SNOW  34  32  93 W8G16     29.92S WCI  27
SCRANTON       LGT RAIN  37  32  82 SW9       29.91R WCI  30
TOWANDA*       CLOUDY    36  25  64 N6        29.96S WCI  31
$$
&&
KEY
WCI = WIND CHILL INDEX
VSB = VISIBILITY
HX  = HEAT INDEX
$$


USA.gov is the U.S. government's official web portal to all federal, state and local government web resources and services.